Location: Ahausen
(50.4985°N, 8.2722°E)
Time: 13:25:22
(UTC+00:00)

JY1SAT - Pass Details

Date: 01 July 2022
Orbit: 564 x 586 km, 97.6° (Epoch: 08 August)

Event Time Altitude Azimuth Distance (km) Brightness Sun altitude
Exits shadow 21:50:34 - 211° (SSW) 2,253 ? -13.2°
Reaches altitude 10° 21:51:37 10° 219° (SW) 1,913 ? -13.2°
Maximum altitude 21:54:45 21° 268° (W) 1,359 ? -13.4°
Drops below altitude 10° 21:57:55 10° 318° (NW) 1,923 ? -13.6°
Sets 22:00:33 0° 335° (NNW) 2,828 ? -13.8°
